Location: Altleiningen
(49.5078°N, 8.0741°E)
Time: 23:10:42
(UTC+00:00)

HJ-1C - Pass Details

Date: 03 March 2021
Orbit: 428 x 440 km, 97.1° (Epoch: 13 April)

Event Time Altitude Azimuth Distance (km) Brightness Sun altitude
Rises 18:32:23 0° 175° (S) 2,416 7.0 -13.5°
Reaches altitude 10° 18:34:25 10° 179° (S) 1,550 6.0 -13.8°
Maximum altitude 18:37:41 57° 260° (W) 524 4.0 -14.4°
Drops below altitude 10° 18:40:58 10° 340° (NNW) 1,557 6.5 -14.9°
Sets 18:43:01 0° 344° (NNW) 2,428 7.4 -15.2°
